Time,TemperatureF,DewpointF,PressureIn,WindDirection,WindDirectionDegrees,WindSpeedMPH,WindSpeedGustMPH,Humidity,HourlyPrecipIn,Conditions,Clouds,dailyrainin,SolarRadiationWatts/m^2,SoftwareType,DateUTC
2013-01-22 00:05:00,20.0,3.0,-100.00,East,79,5.0,19.0,46,0.00,,,0.00,0.000000,,2013-01-22 05:05:00,
2013-01-22 00:11:00,19.0,1.0,-100.00,East,79,6.0,17.0,45,0.00,,,0.00,0.000000,,2013-01-22 05:11:00,
2013-01-22 00:33:00,19.0,1.0,-100.00,East,79,6.0,17.0,45,0.00,,,0.00,0.000000,,2013-01-22 05:33:00,
2013-01-22 00:43:00,19.0,1.0,-100.00,East,79,6.0,17.0,45,0.00,,,0.00,0.000000,,2013-01-22 05:43:00,
2013-01-22 00:53:00,19.0,1.0,-100.00,East,79,6.0,17.0,45,0.00,,,0.00,0.000000,,2013-01-22 05:53:00,
2013-01-22 01:02:00,19.0,1.0,-100.00,East,79,6.0,17.0,45,0.00,,,0.00,0.000000,,2013-01-22 06:02:00,
2013-01-22 01:11:00,17.0,-2.0,-100.00,ENE,78,5.0,13.0,43,0.00,,,0.00,0.000000,,2013-01-22 06:11:00,
2013-01-22 01:33:00,17.0,-2.0,-100.00,ENE,78,5.0,13.0,43,0.00,,,0.00,0.000000,,2013-01-22 06:33:00,
2013-01-22 01:43:00,17.0,-2.0,-100.00,ENE,78,5.0,13.0,43,0.00,,,0.00,0.000000,,2013-01-22 06:43:00,
2013-01-22 01:53:00,17.0,-2.0,-100.00,ENE,78,5.0,13.0,43,0.00,,,0.00,0.000000,,2013-01-22 06:53:00,
2013-01-22 02:02:00,17.0,-2.0,-100.00,ENE,78,5.0,13.0,43,0.00,,,0.00,0.000000,,2013-01-22 07:02:00,
2013-01-22 02:11:00,16.0,-2.0,-100.00,East,85,5.0,15.0,43,0.00,,,0.00,0.000000,,2013-01-22 07:11:00,
2013-01-22 02:33:00,16.0,-2.0,-100.00,East,85,5.0,15.0,43,0.00,,,0.00,0.000000,,2013-01-22 07:33:00,
2013-01-22 02:43:00,16.0,-2.0,-100.00,East,85,5.0,15.0,43,0.00,,,0.00,0.000000,,2013-01-22 07:43:00,
2013-01-22 02:53:00,16.0,-2.0,-100.00,East,85,5.0,15.0,43,0.00,,,0.00,0.000000,,2013-01-22 07:53:00,
2013-01-22 03:02:00,16.0,-2.0,-100.00,East,85,5.0,15.0,43,0.00,,,0.00,0.000000,,2013-01-22 08:02:00,
2013-01-22 03:11:00,15.0,-3.0,-100.00,ENE,76,6.0,13.0,43,0.00,,,0.00,0.000000,,2013-01-22 08:11:00,
2013-01-22 03:33:00,15.0,-3.0,-100.00,ENE,76,6.0,13.0,43,0.00,,,0.00,0.000000,,2013-01-22 08:33:00,
2013-01-22 03:43:00,15.0,-3.0,-100.00,ENE,76,6.0,13.0,43,0.00,,,0.00,0.000000,,2013-01-22 08:43:00,
2013-01-22 03:53:00,15.0,-3.0,-100.00,ENE,76,6.0,13.0,43,0.00,,,0.00,0.000000,,2013-01-22 08:53:00,
2013-01-22 04:02:00,15.0,-3.0,-100.00,ENE,76,6.0,13.0,43,0.00,,,0.00,0.000000,,2013-01-22 09:02:00,
2013-01-22 04:11:00,13.0,-3.0,-100.00,East,79,6.0,12.0,49,0.00,,,0.00,0.000000,,2013-01-22 09:11:00,
2013-01-22 04:33:00,13.0,-3.0,-100.00,East,79,6.0,12.0,49,0.00,,,0.00,0.000000,,2013-01-22 09:33:00,
2013-01-22 04:43:00,13.0,-3.0,-100.00,East,79,6.0,12.0,49,0.00,,,0.00,0.000000,,2013-01-22 09:43:00,
2013-01-22 04:53:00,13.0,-3.0,-100.00,East,79,6.0,12.0,49,0.00,,,0.00,0.000000,,2013-01-22 09:53:00,
2013-01-22 05:03:00,13.0,-3.0,-100.00,East,79,6.0,12.0,49,0.00,,,0.00,0.000000,,2013-01-22 10:03:00,
2013-01-22 05:11:00,12.0,-4.0,-100.00,ENE,72,5.0,13.0,47,0.00,,,0.00,0.000000,,2013-01-22 10:11:00,
2013-01-22 05:33:00,12.0,-4.0,-100.00,ENE,72,5.0,13.0,47,0.00,,,0.00,0.000000,,2013-01-22 10:33:00,
2013-01-22 05:43:00,12.0,-4.0,-100.00,ENE,72,5.0,13.0,47,0.00,,,0.00,0.000000,,2013-01-22 10:43:00,
2013-01-22 05:53:00,12.0,-4.0,-100.00,ENE,72,5.0,13.0,47,0.00,,,0.00,0.000000,,2013-01-22 10:53:00,
2013-01-22 06:02:00,12.0,-4.0,-100.00,ENE,72,5.0,13.0,47,0.00,,,0.00,0.000000,,2013-01-22 11:02:00,
2013-01-22 06:11:00,11.0,-5.0,-100.00,ENE,76,4.0,9.0,47,0.00,,,0.00,0.000000,,2013-01-22 11:11:00,
2013-01-22 06:33:00,11.0,-5.0,-100.00,ENE,76,4.0,9.0,47,0.00,,,0.00,0.000000,,2013-01-22 11:33:00,
2013-01-22 06:43:00,11.0,-5.0,-100.00,ENE,76,4.0,9.0,47,0.00,,,0.00,0.000000,,2013-01-22 11:43:00,
2013-01-22 06:53:00,11.0,-5.0,-100.00,ENE,76,4.0,9.0,47,0.00,,,0.00,0.000000,,2013-01-22 11:53:00,
2013-01-22 07:04:00,11.0,-5.0,-100.00,ENE,76,4.0,9.0,47,0.00,,,0.00,0.000000,,2013-01-22 12:04:00,
2013-01-22 07:11:00,11.0,-2.0,-100.00,NE,51,3.0,9.0,55,0.00,,,0.00,0.000000,,2013-01-22 12:11:00,
2013-01-22 07:33:00,11.0,-2.0,-100.00,NE,51,3.0,9.0,55,0.00,,,0.00,0.000000,,2013-01-22 12:33:00,
2013-01-22 07:43:00,11.0,-2.0,-100.00,NE,51,3.0,9.0,55,0.00,,,0.00,0.000000,,2013-01-22 12:43:00,
2013-01-22 07:53:00,11.0,-2.0,-100.00,NE,51,3.0,9.0,55,0.00,,,0.00,0.000000,,2013-01-22 12:53:00,
2013-01-22 08:04:00,11.0,-2.0,-100.00,NE,51,3.0,9.0,55,0.00,,,0.00,0.000000,,2013-01-22 13:04:00,
2013-01-22 08:11:00,11.0,-5.0,-100.00,East,85,4.0,11.0,48,0.00,,,0.00,14.000000,,2013-01-22 13:11:00,
2013-01-22 08:34:00,11.0,-5.0,-100.00,East,85,4.0,11.0,48,0.00,,,0.00,14.000000,,2013-01-22 13:34:00,
2013-01-22 08:43:00,11.0,-5.0,-100.00,East,85,4.0,11.0,48,0.00,,,0.00,14.000000,,2013-01-22 13:43:00,
2013-01-22 08:54:00,11.0,-5.0,-100.00,East,85,4.0,11.0,48,0.00,,,0.00,14.000000,,2013-01-22 13:54:00,
2013-01-22 09:03:00,11.0,-5.0,-100.00,East,85,4.0,11.0,48,0.00,,,0.00,14.000000,,2013-01-22 14:03:00,
2013-01-22 09:11:00,17.0,-3.0,-100.00,ESE,112,5.0,10.0,40,0.00,,,0.00,232.000000,,2013-01-22 14:11:00,
2013-01-22 09:34:00,17.0,-3.0,-100.00,ESE,112,5.0,10.0,40,0.00,,,0.00,232.000000,,2013-01-22 14:34:00,
2013-01-22 09:44:00,17.0,-3.0,-100.00,ESE,112,5.0,10.0,40,0.00,,,0.00,232.000000,,2013-01-22 14:44:00,
2013-01-22 09:54:00,17.0,-3.0,-100.00,ESE,112,5.0,10.0,40,0.00,,,0.00,232.000000,,2013-01-22 14:54:00,
2013-01-22 10:04:00,17.0,-3.0,-100.00,ESE,112,5.0,10.0,40,0.00,,,0.00,232.000000,,2013-01-22 15:04:00,
2013-01-22 10:11:00,19.0,-5.0,-100.00,East,99,5.0,12.0,33,0.00,,,0.00,480.000000,,2013-01-22 15:11:00,
2013-01-22 10:44:00,19.0,-5.0,-100.00,East,99,5.0,12.0,33,0.00,,,0.00,480.000000,,2013-01-22 15:44:00,
2013-01-22 10:54:00,19.0,-5.0,-100.00,East,99,5.0,12.0,33,0.00,,,0.00,480.000000,,2013-01-22 15:54:00,
2013-01-22 11:04:00,19.0,-5.0,-100.00,East,99,5.0,12.0,33,0.00,,,0.00,480.000000,,2013-01-22 16:04:00,
2013-01-22 11:11:00,21.0,-4.0,-100.00,East,85,5.0,12.0,33,0.00,,,0.00,534.000000,,2013-01-22 16:11:00,
2013-01-22 11:43:00,21.0,-4.0,-100.00,East,85,5.0,12.0,33,0.00,,,0.00,534.000000,,2013-01-22 16:43:00,
2013-01-22 11:54:00,21.0,-4.0,-100.00,East,85,5.0,12.0,33,0.00,,,0.00,534.000000,,2013-01-22 16:54:00,
2013-01-22 12:04:00,21.0,-4.0,-100.00,East,85,5.0,12.0,33,0.00,,,0.00,534.000000,,2013-01-22 17:04:00,
2013-01-22 12:11:00,23.0,-4.0,-100.00,East,82,6.0,14.0,30,0.00,,,0.00,741.000000,,2013-01-22 17:11:00,
2013-01-22 12:35:00,23.0,-4.0,-100.00,East,82,6.0,14.0,30,0.00,,,0.00,741.000000,,2013-01-22 17:35:00,
2013-01-22 12:44:00,23.0,-4.0,-100.00,East,82,6.0,14.0,30,0.00,,,0.00,741.000000,,2013-01-22 17:44:00,
2013-01-22 12:54:00,23.0,-4.0,-100.00,East,82,6.0,14.0,30,0.00,,,0.00,741.000000,,2013-01-22 17:54:00,
2013-01-22 13:04:00,23.0,-4.0,-100.00,East,82,6.0,14.0,30,0.00,,,0.00,741.000000,,2013-01-22 18:04:00,
2013-01-22 13:11:00,25.0,-4.0,-100.00,East,85,5.0,11.0,27,0.00,,,0.00,785.000000,,2013-01-22 18:11:00,
2013-01-22 13:34:00,25.0,-4.0,-100.00,East,85,5.0,11.0,27,0.00,,,0.00,785.000000,,2013-01-22 18:34:00,
2013-01-22 13:44:00,25.0,-4.0,-100.00,East,85,5.0,11.0,27,0.00,,,0.00,785.000000,,2013-01-22 18:44:00,
2013-01-22 13:54:00,25.0,-4.0,-100.00,East,85,5.0,11.0,27,0.00,,,0.00,785.000000,,2013-01-22 18:54:00,
2013-01-22 14:04:00,25.0,-4.0,-100.00,East,85,5.0,11.0,27,0.00,,,0.00,785.000000,,2013-01-22 19:04:00,
2013-01-22 14:11:00,25.0,-6.0,-100.00,ENE,68,5.0,12.0,25,0.00,,,0.00,744.000000,,2013-01-22 19:11:00,
2013-01-22 14:34:00,25.0,-6.0,-100.00,ENE,68,5.0,12.0,25,0.00,,,0.00,744.000000,,2013-01-22 19:34:00,
2013-01-22 14:44:00,25.0,-6.0,-100.00,ENE,68,5.0,12.0,25,0.00,,,0.00,744.000000,,2013-01-22 19:44:00,
2013-01-22 14:54:00,25.0,-6.0,-100.00,ENE,68,5.0,12.0,25,0.00,,,0.00,744.000000,,2013-01-22 19:54:00,
2013-01-22 15:03:00,25.0,-6.0,-100.00,ENE,68,5.0,12.0,25,0.00,,,0.00,744.000000,,2013-01-22 20:03:00,
2013-01-22 15:11:00,24.0,-7.0,-100.00,ENE,71,4.0,11.0,25,0.00,,,-99.99,512.000000,,2013-01-22 20:11:00,
2013-01-22 15:34:00,24.0,-7.0,-100.00,ENE,71,4.0,11.0,25,0.00,,,-99.99,512.000000,,2013-01-22 20:34:00,
2013-01-22 15:43:00,24.0,-7.0,-100.00,ENE,71,4.0,11.0,25,0.00,,,-99.99,512.000000,,2013-01-22 20:43:00,
2013-01-22 15:54:00,24.0,-7.0,-100.00,ENE,71,4.0,11.0,25,0.00,,,-99.99,512.000000,,2013-01-22 20:54:00,
2013-01-22 16:04:00,24.0,-7.0,-100.00,ENE,71,4.0,11.0,25,0.00,,,-99.99,512.000000,,2013-01-22 21:04:00,
2013-01-22 16:11:00,21.0,-9.0,-100.00,ENE,68,5.0,13.0,25,0.00,,,0.00,269.000000,,2013-01-22 21:11:00,
2013-01-22 16:43:00,21.0,-9.0,-100.00,ENE,68,5.0,13.0,25,0.00,,,0.00,269.000000,,2013-01-22 21:43:00,
2013-01-22 16:53:00,21.0,-9.0,-100.00,ENE,68,5.0,13.0,25,0.00,,,0.00,269.000000,,2013-01-22 21:53:00,
2013-01-22 17:03:00,21.0,-9.0,-100.00,ENE,68,5.0,13.0,25,0.00,,,0.00,269.000000,,2013-01-22 22:03:00,
2013-01-22 17:11:00,20.0,-9.0,-100.00,East,85,4.0,10.0,27,0.00,,,0.00,60.000000,,2013-01-22 22:11:00,
2013-01-22 17:43:00,20.0,-9.0,-100.00,East,85,4.0,10.0,27,0.00,,,0.00,60.000000,,2013-01-22 22:43:00,
2013-01-22 17:53:00,20.0,-9.0,-100.00,East,85,4.0,10.0,27,0.00,,,0.00,60.000000,,2013-01-22 22:53:00,
2013-01-22 18:03:00,20.0,-9.0,-100.00,East,85,4.0,10.0,27,0.00,,,0.00,60.000000,,2013-01-22 23:03:00,
2013-01-22 18:11:00,19.0,-6.0,-100.00,East,84,3.0,8.0,32,0.00,,,0.00,9.000000,,2013-01-22 23:11:00,
2013-01-22 18:34:00,19.0,-6.0,-100.00,East,84,3.0,8.0,32,0.00,,,0.00,9.000000,,2013-01-22 23:34:00,
2013-01-22 18:43:00,19.0,-6.0,-100.00,East,84,3.0,8.0,32,0.00,,,0.00,9.000000,,2013-01-22 23:43:00,
2013-01-22 18:53:00,19.0,-6.0,-100.00,East,84,3.0,8.0,32,0.00,,,0.00,9.000000,,2013-01-22 23:53:00,
2013-01-22 19:03:00,19.0,-6.0,-100.00,East,84,3.0,8.0,32,0.00,,,0.00,9.000000,,2013-01-23 00:03:00,
2013-01-22 19:11:00,19.0,-4.0,-100.00,East,82,4.0,8.0,35,0.00,,,0.00,0.000000,,2013-01-23 00:11:00,
2013-01-22 19:43:00,19.0,-4.0,-100.00,East,82,4.0,8.0,35,0.00,,,0.00,0.000000,,2013-01-23 00:43:00,
2013-01-22 19:53:00,19.0,-4.0,-100.00,East,82,4.0,8.0,35,0.00,,,0.00,0.000000,,2013-01-23 00:53:00,
2013-01-22 20:03:00,19.0,-4.0,-100.00,East,82,4.0,8.0,35,0.00,,,0.00,0.000000,,2013-01-23 01:03:00,
2013-01-22 20:11:00,18.0,-3.0,-100.00,East,86,3.0,8.0,38,0.00,,,-99.99,0.000000,,2013-01-23 01:11:00,
2013-01-22 20:33:00,18.0,-3.0,-100.00,East,86,3.0,8.0,38,0.00,,,-99.99,0.000000,,2013-01-23 01:33:00,
2013-01-22 20:43:00,18.0,-3.0,-100.00,East,86,3.0,8.0,38,0.00,,,-99.99,0.000000,,2013-01-23 01:43:00,
2013-01-22 20:53:00,18.0,-3.0,-100.00,East,86,3.0,8.0,38,0.00,,,-99.99,0.000000,,2013-01-23 01:53:00,
2013-01-22 21:03:00,18.0,-3.0,-100.00,East,86,3.0,8.0,38,0.00,,,-99.99,0.000000,,2013-01-23 02:03:00,
2013-01-22 21:11:00,16.0,-4.0,-100.00,East,79,2.0,7.0,40,0.00,,,0.00,0.000000,,2013-01-23 02:11:00,
2013-01-22 21:43:00,16.0,-4.0,-100.00,East,79,2.0,7.0,40,0.00,,,0.00,0.000000,,2013-01-23 02:43:00,
2013-01-22 21:54:00,16.0,-4.0,-100.00,East,79,2.0,7.0,40,0.00,,,0.00,0.000000,,2013-01-23 02:54:00,
2013-01-22 22:03:00,16.0,-4.0,-100.00,East,79,2.0,7.0,40,0.00,,,0.00,0.000000,,2013-01-23 03:03:00,
2013-01-22 22:11:00,14.0,-3.0,-100.00,ENE,70,2.0,7.0,46,0.00,,,0.00,0.000000,,2013-01-23 03:11:00,
2013-01-22 22:33:00,14.0,-3.0,-100.00,ENE,70,2.0,7.0,46,0.00,,,0.00,0.000000,,2013-01-23 03:33:00,
2013-01-22 22:43:00,14.0,-3.0,-100.00,ENE,70,2.0,7.0,46,0.00,,,0.00,0.000000,,2013-01-23 03:43:00,
2013-01-22 22:53:00,14.0,-3.0,-100.00,ENE,70,2.0,7.0,46,0.00,,,0.00,0.000000,,2013-01-23 03:53:00,
2013-01-22 23:03:00,14.0,-3.0,-100.00,ENE,70,2.0,7.0,46,0.00,,,0.00,0.000000,,2013-01-23 04:03:00,
2013-01-22 23:11:00,13.0,-3.0,-100.00,East,93,2.0,4.0,48,0.00,,,0.00,0.000000,,2013-01-23 04:11:00,
2013-01-22 23:33:00,13.0,-3.0,-100.00,East,93,2.0,4.0,48,0.00,,,0.00,0.000000,,2013-01-23 04:33:00,
2013-01-22 23:43:00,13.0,-3.0,-100.00,East,93,2.0,4.0,48,0.00,,,0.00,0.000000,,2013-01-23 04:43:00,
2013-01-22 23:53:00,13.0,-3.0,-100.00,East,93,2.0,4.0,48,0.00,,,0.00,0.000000,,2013-01-23 04:53:00,